Flag for Colombia Weather past 2 weeks in Ibagué, Colombia

Now
66 °F

Passing clouds.


Feels Like: 66 °F
Forecast: 58 / 69 °F
Wind: 5 mph from Southeast

Location: Pereira / Matecana

Current Time: Dec 19, 2014 at 5:49:44 AM

Latest Report: Dec 19, 2014 at 5:00 AM


Visibility: N/A

Pressure: 30.01 "Hg

Humidity: 78%

Dew point: 59 °F

Location of IbaguéLocation

Historic Weather in Ibagué — Graph

°F

Ibagué temperature yesterday

Maximum temperature yesterday: 79 °F (at 2:00 PM)
Minimum temperature yesterday: 64 °F (at 5:00 AM)
Average temperature yesterday: 70 °F

Past Weeks' High & Low Weather Summary

 TemperatureHumidityPressure
High82 °F (Dec 4, 3:00 PM)100% (Dec 7, 11:00 PM)30.16 "Hg (Dec 7, 11:00 PM)
Low61 °F (Dec 10, 5:00 AM)41% (Dec 6, 2:00 PM)29.89 "Hg (Dec 8, 4:00 PM)
Average70 °F80%30.05 "Hg
* Reported Dec 4 1:00 AM — Dec 19 1:00 AM, Ibagué, Weather by CustomWeather, © 2014

Note: Actual official high and low records may vary slightly from our data, if they occured in-between our weather recording intervals... More about our weather records

Advertising

Ibagué weather history for previous 24 hours

 ConditionsComfort  
Time TempWeatherWind HumidityBarometerVisibility
1:00 AM
Dec 19
64 °FPassing clouds.7 mph83%30.03 "HgN/A
12:00 AM66 °FPassing clouds.6 mph78%30.05 "HgN/A
11:00 PM
Dec 18
68 °FPassing clouds.7 mph78%30.08 "HgN/A
10:00 PM68 °FPassing clouds.9 mph78%30.07 "HgN/A
9:00 PM68 °FPassing clouds.7 mph78%30.03 "HgN/A
8:00 PM68 °FPassing clouds.5 mph78%30.01 "HgN/A
7:00 PM70 °FPassing clouds.9 mph73%30.00 "HgN/A
6:00 PM73 °FPassing clouds.8 mph69%29.98 "HgN/A
5:00 PM73 °FScattered clouds.10 mph69%29.96 "HgN/A
4:00 PM72 °FScattered clouds.9 mph73%29.97 "HgN/A
3:00 PM72 °FSleet. Scattered clouds.12 mph83%29.99 "HgN/A
2:00 PM79 °FScattered showers. Scattered clouds.10 mph61%30.01 "HgN/A
12:00 PM77 °FScattered clouds.3 mph65%30.09 "HgN/A
11:00 AM75 °FScattered clouds.6 mph69%30.12 "HgN/A
10:00 AM72 °FScattered clouds.3 mph78%30.13 "HgN/A
9:00 AM70 °FScattered clouds.3 mph88%30.14 "HgN/A
8:00 AM66 °FScattered clouds.3 mph94%30.13 "HgN/A
7:00 AM66 °FScattered clouds.2 mph88%30.09 "HgN/A
6:00 AM64 °FPassing clouds.2 mph94%30.08 "HgN/A
5:00 AM64 °FPassing clouds.No wind94%30.06 "HgN/A
Weather by CustomWeather, © 2014

See weather overviewHow to use our weather pages